Location: Unspecified
(35.7250°N, 0.0000°E)
Time: 14:36:25
(UTC+00:00)

Vanguard 1 - Pass Details

Date: 02 July 2019
Orbit: 655 x 3829 km, 34.2° (Epoch: 19 August)

Event Time Altitude Azimuth Distance (km) Brightness Sun altitude
Rises 06:59:13 0° 285° (WNW) 6,373 13.7 24.0°
Reaches altitude 10° 07:05:05 10° 274° (W) 4,745 13.1 25.2°
Maximum altitude 07:13:50 24° 228° (SW) 2,792 12.1 26.9°
Drops below altitude 10° 07:19:40 10° 177° (S) 3,023 12.6 28.1°
Sets 07:22:27 0° 162° (SSE) 3,666 13.1 28.6°
